#timestamp,LO_Frequency,Hit 
1503943215.7,286046998.2,N
1503943235.6,286046999.8,N
1503943255.4,286047003.1,N
1503943275.2,286047001.6,N
1503943295.1,286047000.5,N
1503943296.0,286047000.5,N
1503943315.8,286047004.7,N
1503943335.6,286047009.2,P
1503943355.5,286047007.4,N
1503943375.3,286047005.3,N
1503943395.1,286047005.8,N
1503943415.9,286047006.9,N
1503943435.7,286047007.6,P
1503943455.5,286046998.6,N
1503943475.4,286046999.9,N
1503943495.2,286047002.8,N
1503943515.0,286047000.3,N
1503943515.9,286047000.3,N
1503943535.8,286047002.2,N
1503943555.6,286047002.5,N
1503943575.4,286047000.8,N
1503943595.2,286046998.2,N
1503943615.1,286047000.3,N
1503943616.0,286047000.3,N
1503943635.8,286047002.6,N
1503943655.6,286047002.5,N
1503943675.5,286047004.3,N
1503943695.3,286047003.4,N
1503943715.1,286047004.3,N
1503943735.9,286047002.1,N
1503943755.7,286047002.4,N
1503943775.5,286047002.4,N
1503943795.4,286047000.6,N
1503943815.2,286046998.3,N
1503943835.0,286046999.9,N
1503943835.9,286046999.9,N
1503943855.8,286047000.5,N
1503943875.6,286047002.4,N
1503943895.4,286046999.8,N
1503943915.2,286047002.6,N
1503943935.1,286046999.7,N
1503943936.0,286046999.7,N
1503943955.8,286047000.3,N
1503943975.6,286046998.4,N
1503943995.5,286046999.2,N
1503944015.3,286046999.9,N
1503944035.1,286046998.0,N
1503944055.9,286046997.9,N
1503944075.7,286046994.8,N
1503944095.5,286046996.0,N
1503944115.4,286046996.2,N
1503944135.2,286046997.5,N
1503944155.0,286046996.3,N
1503944155.9,286046996.3,N
1503944175.8,286046996.2,N
1503944195.6,286046995.3,N
1503944215.4,286046999.0,N
1503944235.3,286047000.6,N
1503944255.1,286046999.2,N
1503944256.0,286046999.2,N
1503944275.8,286047002.0,N
1503944295.6,286047001.1,N
1503944315.5,286047000.0,N
1503944335.3,286047003.0,N
1503944355.1,286047004.1,N
1503944375.9,286047005.6,N
1503944395.7,286047004.7,N
1503944415.5,286047005.1,N
1503944435.4,286047004.9,N
1503944455.2,286047005.7,N
1503944475.0,286047002.0,N
1503944475.9,286047002.0,N
1503944495.8,286047004.2,N
1503944515.6,286047000.8,N
1503944535.4,286047000.0,N
1503944555.3,286047003.6,N
1503944575.1,286047003.4,N
1503944576.0,286047003.4,N
1503944595.8,286047001.6,N
1503944615.7,286047001.0,N
1503944635.5,286046999.7,N
1503944655.3,286046999.9,N
1503944675.1,286046998.1,N
1503944695.9,286046998.4,N
1503944715.7,286047001.6,N
1503944735.5,286047004.2,N
1503944755.4,286046999.7,N
1503944775.2,286047002.4,N
1503944795.0,286046998.8,N
1503944795.9,286046998.8,N
1503944815.8,286047000.4,N
1503944835.6,286047001.7,N
1503944855.4,286047002.8,N
1503944875.3,286046998.4,N
1503944895.1,286046996.5,N
1503944896.0,286046996.5,N
1503944915.8,286046999.0,N
1503944935.7,286046999.0,N
1503944955.5,286046999.2,N
1503944975.3,286046998.6,N
1503944995.2,286047001.2,N
1503945015.9,286046998.2,N
1503945035.7,286047000.0,N
1503945055.5,286047001.6,N
1503945075.4,286047001.7,N
1503945095.2,286047004.1,N
1503945115.0,286047006.0,N
1503945115.9,286047006.0,N
1503945135.8,286047001.4,N
1503945155.6,286047001.6,N
1503945175.4,286047003.0,N
1503945195.3,286047005.6,N
1503945215.1,286047001.4,N
1503945235.8,286047002.3,N
1503945255.7,286047004.3,N
1503945275.5,286047003.5,N
1503945295.3,286047004.0,N
1503945315.2,286047003.8,N
1503945335.9,286047003.6,N
1503945355.7,286047001.8,N
1503945375.6,286047001.9,N
1503945395.4,286047000.9,N
1503945415.2,286047000.8,N
1503945435.0,286047001.8,N
1503945436.0,286047001.8,N
1503945455.8,286047001.3,N
1503945475.6,286047004.8,N
1503945495.5,286047007.6,P
1503945515.3,286047004.0,N
1503945535.1,286047001.4,N
1503945555.8,286047002.2,N
1503945575.7,286047003.2,N
1503945595.5,286047001.4,N
1503945615.3,286047002.4,N
1503945635.2,286047002.4,N
1503945655.9,286047001.5,N
1503945675.7,286047001.7,N
1503945695.6,286047004.0,N
1503945715.4,286047001.4,N
1503945735.2,286047004.4,N
1503945755.1,286047001.7,N
1503945756.0,286047001.7,N
1503945775.8,286047002.3,N
1503945795.6,286047002.7,N
1503945815.5,286047004.2,N
1503945835.3,286047004.1,N
1503945855.1,286047004.8,P
1503945875.9,286047000.6,N
1503945895.7,286046998.7,N
1503945915.5,286046998.4,N
1503945935.3,286046999.6,N
1503945955.2,286047001.5,N
1503945975.0,286047004.1,N
1503945975.9,286047004.1,N
1503945995.7,286047003.7,N
1503946015.6,286047004.2,N
1503946035.4,286047002.5,N
1503946055.2,286047004.4,N
1503946075.1,286047001.8,N
1503946076.0,286047001.8,N
1503946095.8,286047003.9,N
1503946115.6,286047000.0,N
1503946135.5,286047001.0,N
1503946155.3,286046996.5,N
1503946175.1,286046999.5,N
1503946195.9,286046999.5,N
1503946215.7,286046997.1,N
1503946235.5,286046995.4,N
1503946255.4,286046995.5,N
1503946275.2,286046997.3,N
1503946295.0,286046999.6,N
1503946295.9,286046999.6,N
1503946315.8,286046997.4,N
1503946335.6,286046997.8,N
1503946355.4,286046997.8,N
1503946375.2,286046995.3,N
1503946395.1,286046995.2,N
1503946396.0,286046995.2,N
1503946415.8,286046994.1,N
1503946435.6,286046994.8,N
1503946455.5,286046992.1,N
1503946475.3,286046991.8,N
1503946495.1,286046995.4,N
1503946515.9,286046997.6,N
1503946535.7,286046996.8,N
1503946555.5,286046996.4,N
1503946575.4,286046994.5,N
1503946595.2,286046992.4,N
1503946615.0,286046992.8,N
1503946615.9,286046992.8,N
1503946635.8,286046990.6,P
1503946655.6,286046995.1,N
1503946675.4,286046997.7,N
1503946695.3,286046994.6,N
1503946715.1,286046992.2,P
1503946735.8,286047000.8,N
1503946755.7,286047001.0,N
1503946775.5,286046998.4,N
1503946795.3,286047001.7,N
